KB2SKP Weather Reports


Display with metric or nautical units.
time (UTC)temp
F
wind
direction
speed
MPH
gust
MPH
rain 1hr
in
rain 24hr
in
rain mn
in
humidity
%
barometer
mb
20260503212638 61 316 4.0 4.0 0.00 0.00 0.00 32 1011.4
20260503212135 61 240 0.0 4.0 0.00 0.00 0.00 33 1011.2
20260503211633 61 184 2.0 7.0 0.00 0.00 0.00 32 1011.3
20260503211127 61 134 0.0 4.0 0.00 0.00 0.00 33 1011.1
20260503210624 62 257 2.0 4.0 0.00 0.00 0.00 32 1011.1
20260503210121 61 243 0.0 3.0 0.00 0.00 0.00 33 1010.9
20260503205617 60 220 1.0 7.0 0.00 0.00 0.00 32 1011.1
20260503205113 60 136 3.0 5.0 0.00 0.00 0.00 32 1011.1
20260503204610 61 235 7.0 7.0 0.00 0.00 0.00 31 1011.2
20260503204108 61 226 1.0 5.0 0.00 0.00 0.00 33 1010.9
20260503203604 61 244 1.0 5.0 0.00 0.00 0.00 33 1011.3
20260503203102 62 192 2.0 4.0 0.00 0.00 0.00 31 1011.3
20260503202559 61 138 5.0 5.0 0.00 0.00 0.00 33 1011.2
20260503202057 61 45 5.0 5.0 0.00 0.00 0.00 32 1011.2
20260503201555 61 137 5.0 5.0 0.00 0.00 0.00 34 1011.3
20260503201051 60 149 0.0 6.0 0.00 0.00 0.00 33 1011.4
20260503200547 60 149 3.0 4.0 0.00 0.00 0.00 32 1011.7
20260503200044 60 182 4.0 5.0 0.00 0.00 0.00 33 1011.6
20260503195541 60 213 3.0 5.0 0.00 0.00 0.00 32 1011.6
20260503195038 61 180 3.0 5.0 0.00 0.00 0.00 32 1011.7
20260503194535 60 220 2.0 6.0 0.00 0.00 0.00 32 1011.8
20260503194036 61 297 2.0 3.0 0.00 0.00 0.00 36 1011.8
20260503193533 60 129 2.0 5.0 0.00 0.00 0.00 35 1011.9
20260503193028 60 329 1.0 4.0 0.00 0.00 0.00 33 1012.1
20260503192524 60 157 2.0 5.0 0.00 0.00 0.00 31 1012.2
20260503192020 61 272 5.0 7.0 0.00 0.00 0.00 31 1012.2
20260503191517 60 226 3.0 5.0 0.00 0.00 0.00 32 1012.3
20260503191014 59 111 6.0 8.0 0.00 0.00 0.00 33 1012.2
20260503190510 59 296 5.0 6.0 0.00 0.00 0.00 34 1012.5
20260503190008 59 206 2.0 4.0 0.00 0.00 0.00 33 1012.5
20260503185503 60 175 3.0 6.0 0.00 0.00 0.00 32 1012.3
20260503184958 59 133 3.0 8.0 0.00 0.00 0.00 33 1012.5
20260503184455 58 95 2.0 5.0 0.00 0.00 0.00 35 1012.4
20260503183951 59 194 4.0 5.0 0.00 0.00 0.00 33 1012.5
20260503183448 59 217 4.0 6.0 0.00 0.00 0.00 33 1012.6
20260503182945 59 237 2.0 4.0 0.00 0.00 0.00 36 1012.4
20260503182444 59 258 3.0 4.0 0.00 0.00 0.00 34 1012.6
20260503181941 59 108 1.0 5.0 0.00 0.00 0.00 35 1012.4
20260503181438 57 111 3.0 6.0 0.00 0.00 0.00 35 1012.4
20260503180934 58 246 3.0 6.0 0.00 0.00 0.00 36 1012.5
20260503180432 58 301 2.0 3.0 0.00 0.00 0.00 35 1012.6
20260503175929 57 190 5.0 6.0 0.00 0.00 0.00 35 1012.7
20260503175427 58 331 2.0 6.0 0.00 0.00 0.00 33 1012.7
20260503174922 57 167 3.0 4.0 0.00 0.00 0.00 36 1012.6
20260503174421 57 180 4.0 6.0 0.00 0.00 0.00 35 1012.7
20260503173921 58 209 2.0 5.0 0.00 0.00 0.00 35 1012.5
20260503173417 57 219 4.0 6.0 0.00 0.00 0.00 35 1012.7
20260503172914 57 236 3.0 9.0 0.00 0.00 0.00 36 1012.8
20260503172411 57 253 2.0 7.0 0.00 0.00 0.00 34 1012.9
20260503171907 56 183 2.0 3.0 0.00 0.00 0.00 35 1013.2
20260503171404 57 262 6.0 6.0 0.00 0.00 0.00 36 1012.9
20260503170902 57 131 6.0 6.0 0.00 0.00 0.00 36 1012.9
20260503170358 57 228 7.0 7.0 0.00 0.00 0.00 37 1013.0
20260503150750 53 208 2.0 5.0 0.00 0.00 0.00 40 1013.6
20260503150246 52 191 3.0 4.0 0.00 0.00 0.00 39 1013.3
20260503140211 48 248 4.0 7.0 0.00 0.00 0.00 44 1013.8
20260503131140 49 213 4.0 6.0 0.00 0.00 0.00 48 1013.8
20260503130638 48 105 1.0 4.0 0.00 0.00 0.00 50 1013.7
20260503130135 48 53 0.0 5.0 0.00 0.00 0.00 49 1013.7
20260503110528 43 142 2.0 3.0 0.00 0.00 0.00 71 1012.4
20260503090415 45 176 2.0 3.0 0.00 0.00 0.00 64 1010.7
20260503081341 46 155 1.0 3.0 0.00 0.00 0.00 61 1010.3
20260503080838 47 79 1.0 3.0 0.00 0.00 0.00 60 1010.4
20260503080335 47 213 3.0 3.0 0.00 0.00 0.00 60 1010.2
20260503072805 48 139 1.0 4.0 0.00 0.00 0.00 59 1009.9
20260503072305 48 204 3.0 3.0 0.00 0.00 0.00 59 1009.7
20260503071758 48 212 1.0 2.0 0.00 0.00 0.00 59 1010.0
20260503071256 48 229 1.0 2.0 0.00 0.00 0.00 58 1009.7
20260503070752 48 292 2.0 4.0 0.00 0.00 0.00 57 1009.7
20260503070250 49 256 0.0 3.0 0.00 0.00 0.00 56 1009.7
20260503060209 50 250 0.0 4.0 0.00 0.00 0.00 56 1009.4
20260503054656 50 179 3.0 4.0 0.00 0.00 0.00 55 1009.5
20260503054153 51 180 0.0 2.0 0.00 0.00 0.00 55 1009.3
20260503053651 51 331 3.0 4.0 0.00 0.00 0.00 55 1009.6
20260503053150 51 172 2.0 3.0 0.00 0.00 0.00 54 1009.6
20260503052646 51 227 1.0 5.0 0.00 0.00 0.00 54 1009.5
20260503052142 51 55 0.0 3.0 0.00 0.00 0.00 54 1009.6
20260503051637 51 219 2.0 7.0 0.00 0.00 0.00 53 1009.5
20260503051135 52 242 5.0 6.0 0.00 0.00 0.00 53 1009.4
20260503050632 52 145 1.0 8.0 0.00 0.00 0.00 52 1009.7
20260503050129 52 245 0.0 5.0 0.00 0.00 0.00 53 1009.5
20260503045626 52 227 2.0 5.0 0.00 0.00 0.00 53 1009.6
20260503045123 52 226 0.0 3.0 0.00 0.00 0.00 53 1009.5
20260503044619 52 178 3.0 4.0 0.00 0.00 0.00 52 1009.4
20260503044117 52 239 2.0 3.0 0.00 0.00 0.00 52 1009.5
20260503043613 53 254 2.0 3.0 0.00 0.00 0.00 52 1009.4
20260503043110 53 187 2.0 5.0 0.00 0.00 0.00 51 1009.3
20260503042607 53 242 3.0 3.0 0.00 0.00 0.00 50 1009.4
20260503042103 53 258 2.0 4.0 0.00 0.00 0.00 50 1009.5
20260503041600 53 257 3.0 5.0 0.00 0.00 0.00 50 1009.3
20260503041058 53 274 1.0 5.0 0.00 0.00 0.00 50 1009.5
20260503040555 53 227 3.0 5.0 0.00 0.00 0.00 50 1009.4
20260503040052 53 105 1.0 3.0 0.00 0.00 0.00 51 1009.1
20260503035549 53 47 1.0 3.0 0.00 0.00 0.00 51 1009.1
20260503035047 53 211 1.0 2.0 0.00 0.00 0.00 51 1009.1
20260503034543 53 283 0.0 2.0 0.00 0.00 0.00 53 1008.9
20260503034040 53 157 0.0 2.0 0.00 0.00 0.00 53 1009.1
20260503033537 53 196 2.0 2.0 0.00 0.00 0.00 53 1008.7
20260503033035 53 248 2.0 2.0 0.00 0.00 0.00 55 1009.1
20260503032533 53 31 0.0 3.0 0.00 0.00 0.00 55 1009.1
20260503032031 52 204 2.0 2.0 0.00 0.00 0.00 60 1009.1
20260503031529 51 228 1.0 2.0 0.00 0.00 0.00 65 1009.2
20260503031026 51 85 3.0 3.0 0.00 0.00 0.00 65 1009.1
20260503030522 51 78 1.0 2.0 0.00 0.00 0.00 70 1009.1
20260503030019 51 32 0.0 3.0 0.00 0.00 0.00 71 1009.1
20260503025515 51 101 1.0 2.0 0.00 0.00 0.00 71 1009.2
20260503025014 51 108 1.0 3.0 0.00 0.00 0.00 67 1009.1
20260503024509 51 89 0.0 3.0 0.00 0.00 0.00 69 1009.2
20260503024007 50 191 0.0 2.0 0.00 0.00 0.00 69 1009.0
20260503023503 50 92 1.0 3.0 0.00 0.00 0.00 73 1009.0
20260503023001 50 121 2.0 2.0 0.00 0.00 0.00 74 1009.4
20260503022456 50 104 0.0 3.0 0.00 0.00 0.00 71 1009.3
20260503021951 50 105 1.0 2.0 0.00 0.00 0.00 75 1009.1
20260503021448 50 95 0.0 3.0 0.00 0.00 0.00 74 1009.1
20260503020946 49 95 1.0 2.0 0.00 0.00 0.00 79 1009.2
20260503020443 49 100 2.0 2.0 0.00 0.00 0.00 80 1009.2
20260503015939 49 137 0.0 1.0 0.00 0.00 0.00 80 1009.3
20260503015436 49 121 1.0 2.0 0.00 0.00 0.00 78 1009.2
20260503014932 49 127 2.0 2.0 0.00 0.00 0.00 78 1009.3
20260503014429 50 136 0.0 1.0 0.00 0.00 0.00 79 1009.3
20260503013928 50 125 2.0 2.0 0.00 0.00 0.00 77 1009.0
20260503013425 50 116 2.0 2.0 0.00 0.00 0.00 78 1008.9
20260503012922 50 142 0.0 1.0 0.00 0.00 0.00 78 1009.2
20260503012420 50 95 0.0 2.0 0.00 0.00 0.00 78 1009.0
20260503011915 50 107 0.0 1.0 0.00 0.00 0.00 77 1009.0
20260503011413 50 141 0.0 1.0 0.00 0.00 0.00 77 1009.1
20260503010909 50 127 1.0 1.0 0.00 0.00 0.00 77 1009.2
20260503010406 50 120 1.0 2.0 0.00 0.00 0.00 77 1009.0
20260503005903 50 129 2.0 2.0 0.00 0.00 0.00 76 1009.0
20260503005401 51 148 0.0 1.0 0.00 0.00 0.00 76 1008.7
20260503004857 51 147 0.0 2.0 0.00 0.00 0.00 75 1008.8
20260503004354 51 131 2.0 2.0 0.00 0.00 0.00 75 1008.6
20260503003852 51 119 0.0 1.0 0.00 0.00 0.00 74 1008.6
20260503003348 51 127 0.0 2.0 0.00 0.00 0.00 74 1008.4
20260503002845 52 89 0.0 2.0 0.00 0.00 0.00 72 1008.2
20260503002343 52 124 0.0 2.0 0.00 0.00 0.00 70 1008.1
20260503001839 52 116 1.0 1.0 0.00 0.00 0.00 68 1008.0
20260503001335 52 89 0.0 1.0 0.00 0.00 0.00 67 1008.0
20260503000833 53 114 1.0 2.0 0.00 0.00 0.00 68 1008.3
20260503000330 53 100 1.0 1.0 0.00 0.00 0.00 68 1008.2
20260502235827 53 55 0.0 0.0 0.00 0.00 0.00 68 1008.1
20260502235324 53 108 1.0 1.0 0.00 0.00 0.00 67 1008.1
20260502234821 54 126 0.0 2.0 0.00 0.00 0.00 66 1008.1
20260502234318 54 136 1.0 2.0 0.00 0.00 0.00 64 1008.1
20260502233814 55 121 1.0 2.0 0.00 0.00 0.00 62 1008.2
20260502233311 55 128 1.0 1.0 0.00 0.00 0.00 59 1007.7
20260502232808 55 114 0.0 1.0 0.00 0.00 0.00 55 1007.9
20260502232305 55 135 0.0 1.0 0.00 0.00 0.00 55 1007.8
20260502231801 55 66 0.0 0.0 0.00 0.00 0.00 56 1007.7
20260502231259 56 76 0.0 0.0 0.00 0.00 0.00 58 1008.0
20260502230757 56 103 0.0 1.0 0.00 0.00 0.00 56 1007.8
20260502230255 56 150 0.0 0.0 0.00 0.00 0.00 51 1008.0
20260502225751 56 256 0.0 2.0 0.00 0.00 0.00 52 1007.8
20260502225248 56 269 0.0 1.0 0.00 0.00 0.00 53 1008.0
20260502224744 56 89 0.0 2.0 0.00 0.00 0.00 54 1007.8
20260502224241 56 38 0.0 0.0 0.00 0.00 0.00 52 1007.7
20260502223738 57 74 0.0 2.0 0.00 0.00 0.00 53 1008.0
20260502223236 57 49 0.0 0.0 0.00 0.00 0.00 51 1007.8
20260502222734 57 245 0.0 2.0 0.00 0.00 0.00 50 1008.1
20260502222230 57 142 0.0 0.0 0.00 0.00 0.00 51 1008.0
20260502221726 57 218 0.0 0.0 0.00 0.00 0.00 52 1008.3
20260502221223 57 60 0.0 2.0 0.00 0.00 0.00 50 1007.9
20260502220719 57 131 0.0 2.0 0.00 0.00 0.00 49 1008.0
20260502220216 57 61 3.0 3.0 0.00 0.00 0.00 49 1007.9
20260502215713 57 52 0.0 2.0 0.00 0.00 0.00 52 1008.2
20260502215210 57 92 2.0 3.0 0.00 0.00 0.00 50 1007.9
20260502214707 56 89 1.0 2.0 0.00 0.00 0.00 51 1008.1
20260502214204 57 287 0.0 5.0 0.00 0.00 0.00 50 1008.0
20260502213701 57 256 0.0 3.0 0.00 0.00 0.00 51 1008.0
20260502213158 56 205 0.0 2.0 0.00 0.00 0.00 51 1007.9